Fairmont, MN

11:17 PM CDT on April 26, 2017 (GMT -0500)
Fairmont Municipal

Weather History for KFRM - April, 2013

Change the Weather History Date:

Sunday, April 21, 2013

  Actual Average Record
Temperature  
Mean Temperature 44 °F -  
Max Temperature 46 °F 59 °F 89 °F (1980)
Min Temperature 42 °F 38 °F 27 °F (1966)
Degree Days  
Heating Degree Days 21    
Moisture  
Dew Point 29 °F    
Average Humidity 58    
Maximum Humidity 66    
Minimum Humidity 46    
Precipitation  
Precipitation 0.05 in - - ()
Sea Level Pressure  
Sea Level Pressure 30.21 in    
Wind  
Wind Speed - (North)    
Max Wind Speed -    
Max Gust Speed -    
Visibility 10 miles    
Events Thunderstorm    
Averages and records for this station are not official NWS values.
T = Trace of Precipitation, MM = Missing Value Source: NWS Daily Summary

Daily Weather History Graph

Daily Weather History Graph

Search for Another Location

Airport or City:

Trip Planner

Search our weather history database for the weather conditions in past years. The results will help you decide how hot, cold, wet, or windy it might be!

Date:

Astronomy

Apr. 21, 2013 Rise Set
Actual Time 6:24 AM CDT 8:08 PM CDT
Civil Twilight 5:54 AM CDT 8:39 PM CDT
Nautical Twilight 5:17 AM CDT 9:16 PM CDT
Astronomical Twilight 4:37 AM CDT 9:56 PM CDT
Moon 3:47 PM CDT (4/21) 3:55 AM CDT (4/21)
Length of Visible Light 14h 44m
Length of Day
13h 43m
Waxing Gibbous, 80% of the Moon is Illuminated
Apr 21
Waxing Gibbous
Apr 25
Full
May 2
Last Quarter
May 9
New
May 17
First Quarter

Hourly Weather History & Observations

Time (CDT) Temp. Dew Point Humidity Pressure Visibility Wind Dir Wind Speed Gust Speed Precip Events Conditions
12:15 AM - - N/A% - 10.0 mi North - - N/A   Overcast
12:35 AM - - N/A% 30.24 in 10.0 mi North - - N/A   Overcast
12:55 AM 44.6 °F 24.8 °F 46% 30.25 in 10.0 mi North - - N/A   Mostly Cloudy
1:15 AM 42.8 °F 26.6 °F 53% 30.25 in 10.0 mi North - - N/A   Overcast
1:35 AM 42.8 °F 26.6 °F 53% 30.24 in 10.0 mi North - - N/A   Overcast
1:55 AM 42.8 °F 26.6 °F 53% 30.24 in 10.0 mi North - - N/A   Overcast
2:15 AM 42.8 °F 26.6 °F 53% 30.24 in 10.0 mi North - - N/A   Overcast
2:35 AM 42.8 °F 26.6 °F 53% 30.23 in 10.0 mi North - - N/A   Overcast
2:55 AM 42.8 °F 26.6 °F 53% 30.23 in 10.0 mi North - - N/A   Overcast
3:15 AM 42.8 °F 26.6 °F 53% 30.23 in 10.0 mi North - - N/A   Overcast
3:35 AM - - N/A% - 10.0 mi North - - N/A   Overcast
3:55 AM 42.8 °F 28.4 °F 57% 30.21 in 10.0 mi North - - N/A   Overcast
4:15 AM 42.8 °F 28.4 °F 57% 30.21 in 10.0 mi North - - N/A   Overcast
4:35 AM 42.8 °F 28.4 °F 57% 30.21 in 10.0 mi North - - N/A   Overcast
4:55 AM 42.8 °F 28.4 °F 57% 30.20 in 10.0 mi North - - N/A   Mostly Cloudy
5:15 AM 42.8 °F 28.4 °F 57% 30.20 in 10.0 mi North - - N/A   Overcast
5:35 AM 42.8 °F 30.2 °F 61% 30.19 in 10.0 mi North - - N/A   Overcast
5:55 AM 42.8 °F 30.2 °F 61% 30.19 in 10.0 mi North - - N/A   Overcast
6:15 AM 42.8 °F 30.2 °F 61% 30.20 in 10.0 mi North - - 0.01 in   Overcast
6:35 AM 42.8 °F 30.2 °F 61% 30.19 in 10.0 mi North - - 0.01 in   Overcast
6:55 AM 42.8 °F 30.2 °F 61% 30.19 in 10.0 mi North - - 0.01 in   Overcast
7:15 AM 42.8 °F 30.2 °F 61% 30.19 in 10.0 mi North - - N/A   Overcast
7:35 AM 42.8 °F 30.2 °F 61% 30.19 in 10.0 mi North - - N/A   Overcast
7:55 AM 42.8 °F 30.2 °F 61% 30.18 in 10.0 mi North - - N/A   Overcast
8:15 AM 44.6 °F 30.2 °F 57% 30.18 in 10.0 mi North - - N/A   Mostly Cloudy
8:35 AM 44.6 °F 30.2 °F 57% 30.18 in 10.0 mi North - - N/A   Scattered Clouds
8:55 AM - - N/A% - 10.0 mi North - - N/A   Clear
9:15 AM - - N/A% - 10.0 mi North - - N/A   Clear
9:35 AM - - N/A% - 10.0 mi North - - N/A   Partly Cloudy
9:55 AM - - N/A% - 10.0 mi North - - N/A   Scattered Clouds
10:15 AM - - N/A% - 10.0 mi North - - N/A   Partly Cloudy
10:35 AM - - N/A% - 10.0 mi North - - N/A   Partly Cloudy
10:55 AM - - N/A% - 10.0 mi North - - N/A   Scattered Clouds
11:15 AM - - N/A% - 10.0 mi North - - N/A   Partly Cloudy
11:35 AM - - N/A% - 10.0 mi North - - N/A   Scattered Clouds
11:55 AM - - N/A% - 10.0 mi North - - N/A   Scattered Clouds
12:15 PM - - N/A% - 10.0 mi North - - N/A   Overcast
12:35 PM - - N/A% - 10.0 mi North - - N/A   Overcast
12:55 PM - - N/A% - 10.0 mi North - - N/A   Overcast
1:15 PM - - N/A% - 10.0 mi North - - N/A   Overcast
1:35 PM - - N/A% - 10.0 mi North - - N/A   Overcast
1:55 PM - - N/A% - 10.0 mi North - - N/A   Mostly Cloudy
2:15 PM - - N/A% - 10.0 mi North - - N/A   Mostly Cloudy
2:35 PM - - N/A% - 10.0 mi North - - N/A   Overcast
2:55 PM - - N/A% - 10.0 mi North - - N/A   Overcast
3:15 PM - - N/A% - 10.0 mi North - - N/A   Overcast
3:35 PM - - N/A% - 10.0 mi North - - N/A Thunderstorm Overcast
3:55 PM - - N/A% - 10.0 mi North - - N/A   Overcast
4:15 PM - - N/A% - 10.0 mi North - - N/A   Overcast
4:35 PM - - N/A% - 10.0 mi North - - N/A   Overcast
4:55 PM - - N/A% - 10.0 mi North - - N/A   Overcast
5:15 PM - - N/A% - 10.0 mi North - - 0.01 in   Overcast
5:35 PM - - N/A% - 10.0 mi North - - 0.02 in   Overcast
5:55 PM - - N/A% - 10.0 mi North - - 0.02 in   Overcast
6:15 PM - - N/A% - 10.0 mi North - - 0.01 in   Overcast
6:35 PM - - N/A% - 10.0 mi North - - 0.02 in   Overcast
6:55 PM - - N/A% - 10.0 mi North - - 0.02 in   Overcast
7:15 PM - - N/A% - 9.0 mi North - - N/A   Overcast
7:35 PM - - N/A% - 10.0 mi North - - N/A   Overcast
7:55 PM - - N/A% - 10.0 mi North - - N/A   Overcast
8:15 PM - - N/A% - 10.0 mi North - - N/A   Overcast
8:35 PM - - N/A% - 10.0 mi North - - N/A   Overcast
8:55 PM - - N/A% - 10.0 mi North - - N/A   Overcast
9:15 PM - - N/A% - 10.0 mi North - - N/A   Overcast
9:35 PM - - N/A% - 10.0 mi North - - N/A   Overcast
9:55 PM - - N/A% - 10.0 mi North - - N/A   Overcast
10:15 PM - - N/A% - 10.0 mi North - - N/A   Overcast
10:35 PM - - N/A% - 10.0 mi North - - N/A   Overcast
10:55 PM 46.4 °F 33.8 °F 62% - 10.0 mi North - - N/A   Overcast
11:15 PM 44.6 °F 33.8 °F 66% 30.18 in 10.0 mi North - - N/A   Overcast
11:35 PM 44.6 °F 33.8 °F 66% 30.18 in 10.0 mi North - - N/A   Overcast
11:55 PM 44.6 °F 33.8 °F 66% 30.19 in 10.0 mi North - - N/A   Overcast